QPF
0.00 0.00 0.00 0.00 0.00 0.00 0.00 0.00 0.00 0.00 0.00 0.00 0.00 0.00 0.00 0.00 0.00 0.00 0.00 0.00 0.00 0.00 0.00 0.00 0.00 0.00 0.00 0.00 0.00 0.00 0.00 0.00 0.00 0.00 0.00 0.00 0.00 0.00 0.00 0.00 0.00 0.00 0.00 0.00
0.00 0.00 0.00 0.00 0.00 0.00 0.00 0.00 0.00 0.00 0.00 0.00 0.00 0.00 0.00 0.00 0.00 0.00 0.00 0.00 0.00 0.00 0.00 0.00 0.00 0.00 0.00 0.00 0.00 0.00 0.00 0.00 0.00 0.00 0.00 0.00 0.00 0.00 0.00 0.00 0.00 0.00 0.00 0.00
0.00 0.00 0.00 0.00 0.00 0.00 0.00 0.00 0.00 0.00 0.00 0.00 0.00 0.00 0.00 0.00 0.00 0.00 0.00 0.00 0.00 0.00 0.00 0.00 0.00 0.00 0.00 0.00 0.00 0.00 0.00 0.00 0.00 0.00 0.00 0.00 0.00 0.00 0.00 0.00 0.00 0.00 0.00 0.00
0.01 0.01 0.00 0.00 0.00 0.00 0.00 0.00 0.00 0.00 0.00 0.00 0.00 0.00 0.00 0.00 0.00 0.00 0.00 0.00 0.00 0.00 0.00 0.00 0.00 0.00 0.00 0.00 0.00 0.00 0.00 0.00 0.00 0.00 0.00 0.00 0.00 0.00 0.00 0.00 0.00 0.00 0.00 0.00
0.00 0.00 0.00 0.00 0.00 0.01 0.00 0.00 0.00 0.00 0.00 0.00 0.00 0.00 0.00 0.00 0.00 0.00 0.00 0.00 0.00 0.00 0.00 0.00 0.00 0.00 0.00 0.00 0.00 0.00 0.00 0.00 0.00 0.00 0.00 0.00 0.00 0.00 0.00 0.00 0.00 0.00 0.00 0.00
0.00 0.00 0.00 0.00 0.00 0.02 0.00 0.00 0.01 0.01 0.00 0.01 0.02 0.00 0.00 0.00 0.00 0.00 0.00 0.00 0.00 0.00 0.00 0.00 0.00 0.00 0.00 0.00 0.00 0.00 0.00 0.00 0.00 0.00 0.00 0.00 0.00 0.00 0.00 0.00 0.00 0.00 0.00 0.00
0.00 0.00 0.00 0.00 0.01 0.04 0.02 0.01 0.02 0.02 0.00 0.00 0.00 0.00 0.00 0.00 0.00 0.01 0.00 0.00 0.00 0.00 0.00 0.00 0.00 0.00 0.00 0.00 0.00 0.00 0.00 0.00 0.00 0.01 0.00 0.00 0.00 0.00 0.00 0.00 0.00 0.00 0.00 0.00
0.00 0.01 0.01 0.01 0.02 0.05 0.06 0.02 0.04 0.02 0.01 0.00 0.00 0.00 0.00 0.00 0.00 0.00 0.00 0.00 0.00 0.00 0.00 0.00 0.00 0.00 0.00 0.00 0.00 0.00 0.00 0.00 0.00 0.01 0.00 0.00 0.00 0.00 0.00 0.00 0.00 0.00 0.00 0.00
0.02 0.01 0.00 0.01 0.01 0.02 0.06 0.01 0.04 0.05 0.03 0.00 0.00 0.00 0.00 0.00 0.00 0.00 0.00 0.00 0.00 0.00 0.00 0.01 0.00 0.00 0.00 0.00 0.01 0.00 0.00 0.00 0.00 0.01 0.01 0.00 0.00 0.00 0.00 0.00 0.00 0.00 0.00 0.00
0.00 0.00 0.00 0.01 0.01 0.02 0.08 0.01 0.04 0.06 0.06 0.00 0.00 0.00 0.00 0.00 0.01 0.00 0.00 0.00 0.00 0.00 0.00 0.00 0.00 0.00 0.00 0.00 0.01 0.01 0.01 0.00 0.01 0.01 0.02 0.01 0.00 0.00 0.00 0.00 0.00 0.00 0.00 0.00
0.01 0.01 0.02 0.01 0.01 0.03 0.10 0.02 0.03 0.06 0.06 0.01 0.00 0.00 0.00 0.00 0.00 0.00 0.00 0.00 0.00 0.01 0.02 0.02 0.01 0.01 0.01 0.02 0.01 0.00 0.01 0.02 0.01 0.01 0.03 0.02 0.00 0.00 0.00 0.00 0.00 0.00 0.00 0.00
0.02 0.03 0.02 0.02 0.02 0.02 0.07 0.05 0.02 0.05 0.05 0.01 0.00 0.00 0.00 0.00 0.00 0.00 0.00 0.00 0.00 0.01 0.01 0.01 0.01 0.00 0.00 0.01 0.01 0.01 0.01 0.01 0.02 0.01 0.01 0.00 0.00 0.00 0.00 0.00 0.00 0.00 0.00 0.00
0.03 0.04 0.03 0.02 0.01 0.02 0.08 0.10 0.06 0.03 0.03 0.01 0.00 0.00 0.00 0.00 0.00 0.00 0.00 0.00 0.00 0.00 0.01 0.01 0.01 0.00 0.00 0.00 0.00 0.00 0.00 0.00 0.01 0.00 0.00 0.00 0.00 0.00 0.00 0.00 0.00 0.00 0.00 0.00
0.04 0.03 0.02 0.02 0.01 0.02 0.06 0.10 0.04 0.02 0.01 0.00 0.00 0.00 0.00 0.00 0.00 0.00 0.00 0.00 0.00 0.00 0.00 0.00 0.00 0.00 0.00 0.00 0.01 0.00 0.00 0.00 0.00 0.00 0.00 0.00 0.00 0.00 0.00 0.00 0.00 0.00 0.00 0.00
0.01 0.01 0.02 0.01 0.00 0.01 0.05 0.05 0.00 0.00 0.02 0.01 0.00 0.00 0.00 0.00 0.00 0.00 0.00 0.00 0.00 0.00 0.00 0.00 0.00 0.00 0.00 0.00 0.00 0.00 0.00 0.00 0.00 0.00 0.00 0.00 0.00 0.00 0.00 0.00 0.00 0.00 0.00 0.00
0.00 0.01 0.00 0.00 0.00 0.02 0.00 0.00 0.00 0.00 0.01 0.01 0.00 0.00 0.00 0.00 0.00 0.00 0.00 0.00 0.00 0.00 0.01 0.00 0.00 0.00 0.00 0.00 0.00 0.00 0.00 0.00 0.00 0.00 0.00 0.00 0.00 0.00 0.00 0.00 0.00 0.00 0.00 0.00
0.01 0.00 0.00 0.00 0.03 0.02 0.00 0.01 0.00 0.03 0.01 0.00 0.00 0.00 0.00 0.00 0.00 0.00 0.00 0.00 0.00 0.00 0.00 0.00 0.00 0.00 0.00 0.00 0.00 0.00 0.00 0.00 0.00 0.00 0.00 0.00 0.00 0.00 0.00 0.00 0.00 0.00 0.00 0.00
0.00 0.00 0.00 0.00 0.00 0.00 0.00 0.00 0.00 0.01 0.00 0.00 0.00 0.00 0.00 0.00 0.00 0.00 0.00 0.00 0.00 0.00 0.00 0.01 0.00 0.00 0.00 0.00 0.00 0.00 0.00 0.00 0.00 0.00 0.00 0.00 0.00 0.00 0.00 0.00 0.00 0.00 0.00 0.00
0.00 0.00 0.00 0.00 0.00 0.00 0.00 0.00 0.00 0.00 0.00 0.00 0.00 0.00 0.00 0.00 0.00 0.00 0.00 0.00 0.00 0.00 0.00 0.00 0.00 0.00 0.00 0.00 0.00 0.00 0.00 0.00 0.00 0.00 0.00 0.00 0.00 0.00 0.00 0.00 0.00 0.00 0.00 0.00
0.00 0.00 0.00 0.00 0.00 0.00 0.00 0.00 0.00 0.00 0.00 0.00 0.00 0.00 0.00 0.00 0.00 0.00 0.00 0.00 0.01 0.00 0.01 0.00 0.00 0.00 0.00 0.00 0.00 0.00 0.00 0.00 0.00 0.00 0.00 0.00 0.00 0.00 0.00 0.00 0.00 0.00 0.00 0.00
0.00 0.00 0.00 0.00 0.00 0.00 0.00 0.00 0.00 0.00 0.00 0.00 0.00 0.00 0.00 0.00 0.00 0.00 0.00 0.00 0.00 0.00 0.00 0.00 0.00 0.00 0.00 0.00 0.00 0.00 0.00 0.00 0.00 0.00 0.00 0.00 0.00 0.00 0.00 0.00 0.00 0.00 0.00 0.00
0.00 0.00 0.00 0.00 0.00 0.00 0.00 0.00 0.00 0.00 0.00 0.00 0.00 0.00 0.00 0.00 0.00 0.00 0.00 0.00 0.00 0.00 0.00 0.00 0.00 0.00 0.00 0.00 0.00 0.00 0.00 0.00 0.00 0.00 0.00 0.00 0.00 0.00 0.00 0.00 0.00 0.00 0.00 0.00
0.00 0.00 0.00 0.00 0.00 0.00 0.00 0.00 0.00 0.00 0.00 0.00 0.00 0.00 0.00 0.00 0.00 0.00 0.00 0.00 0.00 0.00 0.00 0.00 0.00 0.00 0.00 0.00 0.00 0.00 0.00 0.00 0.00 0.00 0.00 0.00 0.00 0.00 0.00 0.00 0.00 0.00 0.00 0.00
0.00 0.00 0.00 0.00 0.00 0.00 0.00 0.00 0.00 0.00 0.00 0.00 0.00 0.00 0.00 0.00 0.00 0.00 0.00 0.00 0.00 0.00 0.00 0.00 0.00 0.00 0.00 0.00 0.00 0.00 0.00 0.00 0.00 0.00 0.00 0.00 0.00 0.00 0.00 0.00 0.00 0.00 0.00 0.00
0.00 0.00 0.00 0.00 0.00 0.00 0.00 0.00 0.00 0.00 0.00 0.00 0.00 0.00 0.00 0.00 0.00 0.00 0.00 0.00 0.00 0.00 0.00 0.00 0.00 0.00 0.00 0.00 0.00 0.00 0.00 0.00 0.00 0.00 0.00 0.00 0.00 0.00 0.00 0.00 0.00 0.00 0.00 0.00
0.00 0.00 0.00 0.00 0.00 0.00 0.00 0.00 0.00 0.00 0.00 0.00 0.00 0.00 0.00 0.00 0.00 0.00 0.00 0.00 0.00 0.00 0.00 0.00 0.00 0.00 0.00 0.00 0.00 0.00 0.00 0.00 0.00 0.00 0.00 0.00 0.00 0.00 0.00 0.00 0.00 0.00 0.00 0.00
0.00 0.00 0.00 0.00 0.00 0.00 0.00 0.00 0.00 0.00 0.00 0.00 0.00 0.00 0.00 0.00 0.00 0.00 0.00 0.00 0.00 0.00 0.00 0.00 0.00 0.00 0.00 0.00 0.00 0.00 0.00 0.00 0.00 0.00 0.00 0.00 0.00 0.00 0.00 0.00 0.00 0.00 0.00 0.00
MSLP
1027.48 1026.81 1026.16 1025.50 1024.85 1024.24 1023.79 1023.75 1022.97 1020.93 1020.23 1020.60 1020.64 1021.28 1021.63 1021.53 1020.14 1020.12 1019.44 1018.37 1017.82 1017.65 1017.20 1016.21 1015.59 1014.38 1013.26 1012.40 1012.45 1013.06 1012.69 1012.88 1012.65 1011.73 1011.08 1011.08 1011.32 1011.60 1012.33 1013.24 1013.91 1013.73 1012.87 1010.32
1027.53 1027.11 1026.56 1025.96 1025.35 1024.79 1024.94 1025.08 1024.19 1021.73 1021.49 1022.52 1022.99 1023.28 1022.72 1022.18 1021.51 1021.23 1020.87 1019.94 1019.72 1019.72 1019.03 1017.89 1016.22 1015.30 1014.29 1013.53 1012.96 1012.08 1011.85 1012.11 1012.50 1011.32 1011.52 1011.25 1011.17 1011.28 1011.39 1011.76 1012.15 1012.08 1011.59 1009.16
1027.54 1027.11 1026.68 1026.25 1025.79 1025.36 1025.43 1025.84 1025.45 1024.24 1024.18 1024.72 1024.84 1024.52 1023.51 1022.88 1022.11 1021.52 1020.99 1020.55 1020.07 1020.20 1019.70 1019.44 1018.23 1017.39 1016.02 1014.89 1014.50 1013.44 1012.24 1010.82 1010.18 1009.49 1009.66 1009.58 1010.36 1010.24 1010.37 1010.95 1010.87 1010.08 1009.05 1007.93
1027.54 1027.19 1026.75 1026.31 1025.87 1025.58 1025.82 1026.51 1026.56 1026.21 1026.02 1025.52 1025.33 1025.18 1024.30 1023.24 1022.63 1021.87 1021.40 1020.95 1021.09 1020.93 1020.20 1019.38 1018.29 1017.48 1016.83 1015.52 1015.00 1014.03 1012.30 1011.12 1010.28 1009.29 1009.15 1009.21 1008.85 1008.61 1009.15 1009.61 1008.81 1008.94 1007.87 1007.30
1027.56 1027.15 1026.78 1026.38 1026.00 1025.86 1026.53 1027.13 1027.09 1026.57 1026.29 1025.82 1025.67 1025.07 1024.34 1023.57 1022.76 1022.56 1021.68 1021.52 1020.94 1020.90 1020.73 1020.07 1018.43 1018.07 1017.41 1016.61 1015.02 1014.31 1013.27 1011.32 1010.70 1008.98 1008.41 1008.30 1008.00 1007.86 1007.59 1007.56 1007.41 1007.54 1007.08 1006.06
1027.45 1026.97 1026.52 1026.16 1025.83 1025.84 1026.58 1026.81 1026.77 1026.64 1025.81 1025.59 1025.42 1024.50 1023.85 1023.18 1022.84 1021.97 1021.39 1021.08 1020.94 1020.48 1019.36 1018.96 1018.46 1017.91 1016.82 1016.40 1015.52 1014.71 1013.99 1012.95 1011.39 1008.47 1007.90 1007.73 1007.36 1004.77 1006.41 1006.39 1006.26 1006.43 1006.00 1005.53
1027.08 1026.66 1026.19 1025.80 1025.46 1025.53 1026.27 1026.12 1026.26 1026.12 1025.17 1025.05 1024.46 1023.91 1023.66 1022.87 1022.24 1021.88 1020.87 1020.36 1020.26 1018.76 1018.49 1018.36 1017.36 1016.19 1015.16 1014.56 1013.56 1013.68 1012.95 1012.38 1011.88 1009.42 1007.38 1005.62 1003.39 1003.60 1004.16 1004.67 1004.44 1004.75 1004.52 1004.47
1026.94 1026.48 1026.08 1025.67 1025.24 1024.81 1025.40 1025.52 1025.70 1025.11 1024.14 1023.77 1022.91 1023.01 1022.43 1021.91 1021.46 1021.04 1020.41 1019.04 1018.99 1018.34 1018.30 1018.03 1016.63 1014.66 1013.77 1012.04 1011.22 1011.10 1011.14 1010.88 1010.56 1009.26 1006.22 1004.73 1003.56 1003.11 1003.17 1003.56 1003.53 1003.65 1004.06 1004.17
1026.62 1026.08 1025.62 1025.18 1024.69 1024.22 1024.40 1024.46 1024.62 1024.71 1023.39 1022.02 1021.95 1021.82 1021.36 1021.22 1020.64 1019.92 1019.00 1018.57 1018.08 1018.18 1017.96 1017.15 1015.74 1014.32 1013.00 1010.89 1009.35 1008.37 1008.70 1008.50 1008.26 1008.02 1005.44 1003.53 1002.04 1002.10 1002.17 1002.62 1002.60 1002.73 1003.03 1003.34
1025.97 1025.41 1025.00 1024.56 1023.93 1023.42 1023.43 1023.16 1023.41 1023.31 1022.27 1021.01 1021.24 1020.60 1020.39 1020.30 1020.01 1019.16 1018.67 1018.37 1018.06 1017.80 1017.34 1016.24 1015.10 1013.47 1012.29 1010.63 1009.58 1008.14 1007.46 1006.81 1006.58 1006.31 1005.54 1003.32 1002.03 1001.28 1001.71 1002.31 1001.81 1001.92 1002.56 1003.29
1025.76 1024.95 1024.36 1023.86 1023.13 1022.60 1022.46 1021.72 1021.98 1022.24 1021.01 1019.68 1019.54 1019.14 1019.17 1019.30 1019.32 1018.86 1018.21 1018.41 1017.80 1017.59 1017.02 1015.93 1014.63 1013.20 1011.92 1010.85 1009.51 1008.10 1006.39 1005.27 1004.55 1004.56 1004.09 1002.47 1001.57 1001.91 1001.84 1001.28 1001.77 1002.12 1002.76 1003.32
1025.28 1024.58 1023.76 1023.11 1022.29 1021.71 1021.24 1020.94 1020.36 1020.11 1019.79 1018.56 1018.31 1017.61 1017.59 1017.81 1017.47 1017.90 1017.86 1017.73 1017.50 1017.28 1016.76 1015.92 1014.80 1013.34 1012.23 1011.04 1008.78 1006.98 1005.08 1004.14 1003.56 1003.02 1001.57 1001.38 1001.12 1001.24 1001.10 1001.05 1002.02 1002.92 1003.39 1003.81
1024.65 1023.85 1023.16 1022.37 1021.56 1020.85 1020.50 1020.10 1019.52 1019.71 1018.80 1017.95 1017.73 1016.42 1016.04 1016.06 1016.17 1016.28 1017.21 1017.05 1016.59 1016.28 1015.87 1015.53 1014.30 1013.11 1012.27 1011.19 1009.86 1008.47 1006.84 1004.94 1003.97 1003.19 1002.49 1002.21 1002.27 1001.92 1002.17 1002.04 1002.52 1003.24 1003.87 1004.55
1024.10 1023.27 1022.43 1021.65 1020.77 1019.98 1019.43 1019.71 1019.47 1019.44 1019.12 1018.49 1016.17 1015.24 1015.37 1014.51 1015.04 1015.52 1015.72 1015.39 1015.56 1015.71 1015.76 1015.47 1014.57 1013.56 1012.52 1011.23 1010.69 1011.31 1011.74 1009.00 1006.54 1004.22 1003.84 1003.19 1003.46 1003.63 1003.56 1003.78 1004.21 1004.67 1005.31 1005.82
1023.48 1022.60 1021.67 1020.86 1020.03 1019.36 1019.23 1019.52 1019.47 1019.24 1019.50 1018.61 1016.74 1015.52 1014.69 1014.82 1014.92 1014.99 1014.91 1015.01 1015.08 1014.98 1014.93 1014.66 1013.99 1013.48 1013.52 1012.36 1012.63 1013.21 1013.53 1011.25 1009.25 1005.49 1004.99 1004.04 1004.98 1005.17 1004.77 1005.07 1006.21 1006.50 1006.67 1007.46
1022.71 1021.76 1021.00 1020.16 1019.53 1019.00 1019.46 1019.66 1019.60 1019.29 1019.35 1019.20 1017.95 1016.14 1015.15 1015.04 1014.71 1014.59 1014.48 1014.15 1013.92 1014.05 1014.19 1014.66 1015.45 1015.82 1015.18 1016.01 1016.01 1015.98 1014.06 1011.49 1007.97 1007.15 1005.60 1005.48 1006.22 1006.71 1006.76 1007.07 1007.72 1008.12 1008.53 1009.16
1021.96 1021.02 1020.22 1019.57 1019.19 1019.52 1019.64 1019.86 1019.75 1018.86 1019.01 1019.38 1018.72 1017.54 1016.04 1015.79 1015.46 1015.35 1014.64 1014.04 1014.60 1014.44 1015.74 1016.95 1017.24 1017.32 1017.19 1018.32 1018.43 1017.59 1015.44 1013.04 1010.52 1008.99 1007.28 1007.59 1008.00 1009.05 1008.96 1009.00 1009.61 1009.78 1010.31 1010.81
1021.24 1020.32 1019.69 1019.34 1019.21 1019.27 1019.55 1019.78 1019.30 1018.91 1019.20 1019.63 1019.94 1019.03 1017.62 1016.89 1016.98 1016.64 1016.18 1015.70 1015.86 1016.83 1017.82 1018.62 1018.92 1018.95 1019.28 1019.96 1020.40 1018.83 1016.86 1014.98 1013.32 1012.36 1011.38 1011.21 1011.18 1010.89 1011.08 1011.17 1011.22 1011.27 1011.93 1012.44
1020.75 1019.93 1019.58 1019.88 1020.05 1020.36 1020.11 1019.66 1019.43 1019.45 1020.18 1021.00 1021.49 1021.31 1019.54 1017.96 1017.75 1017.26 1016.65 1016.22 1017.13 1018.35 1019.31 1019.95 1020.50 1020.91 1021.73 1023.06 1021.87 1020.51 1019.35 1018.19 1017.14 1015.59 1014.46 1013.92 1013.70 1014.00 1013.85 1013.55 1013.53 1013.57 1014.21 1014.36
1020.98 1020.66 1020.68 1021.07 1021.03 1020.36 1020.02 1019.97 1020.29 1020.57 1021.70 1022.20 1023.15 1022.26 1021.10 1020.02 1018.66 1017.80 1017.30 1016.75 1018.07 1019.48 1020.71 1021.21 1021.97 1022.95 1023.79 1023.37 1022.94 1022.13 1021.17 1020.27 1019.19 1017.30 1016.98 1016.87 1016.62 1016.68 1016.57 1016.35 1016.36 1016.26 1016.34 1016.34
1022.29 1022.60 1022.56 1021.86 1020.94 1020.85 1021.87 1022.95 1023.50 1024.00 1024.33 1024.13 1023.83 1023.07 1021.84 1020.47 1019.95 1019.08 1018.28 1018.60 1019.46 1020.85 1022.00 1022.37 1023.75 1024.55 1024.92 1024.43 1023.76 1023.04 1022.24 1021.46 1020.76 1020.12 1019.77 1019.31 1018.97 1018.76 1018.38 1018.21 1018.12 1018.05 1018.02 1017.98
1023.43 1023.41 1023.26 1023.06 1023.38 1023.92 1025.27 1026.31 1026.26 1026.34 1026.51 1025.38 1024.55 1023.27 1022.46 1021.32 1020.62 1019.88 1019.50 1020.31 1021.37 1022.87 1023.11 1024.00 1025.42 1026.33 1026.01 1025.36 1024.66 1024.05 1023.32 1022.60 1021.99 1021.41 1020.94 1020.56 1020.38 1020.28 1019.89 1019.71 1019.66 1019.55 1019.43 1019.19
1023.69 1024.19 1024.84 1025.83 1026.92 1027.72 1028.78 1029.11 1028.66 1028.07 1027.02 1026.03 1025.17 1024.22 1023.28 1022.14 1021.36 1020.95 1021.15 1022.24 1023.73 1023.93 1025.24 1026.27 1027.13 1027.06 1026.55 1026.03 1025.37 1024.72 1024.23 1023.70 1023.12 1022.62 1022.15 1021.79 1021.57 1021.34 1021.04 1020.96 1020.88 1020.67 1020.39 1020.21
1025.80 1026.86 1028.24 1029.12 1029.97 1030.31 1030.39 1030.34 1029.64 1028.32 1027.29 1026.44 1025.82 1025.13 1024.58 1023.55 1022.89 1022.80 1023.60 1024.88 1024.93 1026.34 1027.19 1027.69 1027.79 1027.61 1027.31 1026.72 1026.09 1025.47 1025.10 1024.72 1024.28 1023.78 1023.20 1022.84 1022.54 1022.46 1022.15 1021.91 1021.81 1021.54 1021.30 1021.10
1027.79 1028.73 1030.66 1030.74 1030.63 1030.55 1030.45 1030.11 1029.51 1028.14 1027.36 1026.76 1026.35 1026.02 1025.92 1025.19 1024.84 1025.15 1025.54 1026.39 1027.56 1028.14 1028.43 1028.41 1028.22 1027.95 1027.62 1027.07 1026.54 1026.17 1025.81 1025.44 1025.04 1024.65 1024.32 1024.06 1023.82 1023.51 1023.19 1022.99 1022.68 1022.35 1022.06 1021.83
1029.25 1030.45 1031.16 1030.93 1031.08 1030.91 1030.57 1029.89 1029.12 1027.90 1027.41 1027.00 1027.12 1027.32 1027.40 1027.85 1027.70 1027.69 1028.17 1028.46 1029.06 1029.25 1028.94 1028.78 1028.50 1028.32 1028.08 1027.73 1027.23 1026.81 1026.45 1026.08 1025.73 1025.31 1024.87 1024.44 1024.10 1023.84 1023.61 1023.24 1022.93 1022.73 1022.49 1022.33
1031.02 1031.56 1031.31 1031.32 1031.39 1031.36 1030.71 1030.09 1029.15 1028.22 1027.79 1028.27 1028.42 1029.60 1030.26 1029.56 1029.69 1029.89 1029.92 1030.20 1030.26 1029.93 1029.40 1029.04 1028.88 1028.81 1028.60 1028.16 1027.70 1027.27 1026.85 1026.49 1026.12 1025.76 1025.34 1024.88 1024.44 1024.09 1023.74 1023.42 1023.11 1022.90 1022.59 1022.43
Thickness
5467 5466 5467 5467 5467 5468 5468 5456 5452 5467 5467 5462 5456 5453 5436 5433 5442 5427 5430 5441 5446 5443 5448 5451 5459 5476 5504 5501 5488 5483 5487 5472 5476 5504 5515 5515 5516 5519 5506 5497 5496 5488 5466 5513
5454 5450 5449 5447 5446 5445 5441 5430 5425 5444 5438 5419 5410 5400 5402 5405 5402 5399 5393 5400 5395 5394 5401 5413 5437 5446 5461 5470 5472 5472 5476 5460 5452 5490 5491 5494 5499 5504 5513 5499 5490 5485 5484 5508
5441 5439 5435 5431 5427 5422 5416 5404 5395 5403 5393 5382 5369 5358 5374 5373 5377 5376 5378 5377 5380 5366 5367 5372 5372 5386 5416 5422 5430 5450 5461 5467 5485 5509 5502 5493 5485 5491 5504 5504 5477 5509 5516 5534
5429 5422 5416 5411 5406 5402 5393 5378 5372 5372 5354 5355 5341 5328 5334 5335 5332 5341 5339 5337 5334 5327 5326 5335 5350 5367 5376 5400 5409 5418 5434 5435 5463 5483 5486 5481 5498 5503 5489 5492 5516 5504 5527 5518
5412 5406 5397 5390 5384 5379 5364 5347 5338 5340 5332 5318 5300 5301 5301 5301 5303 5296 5306 5293 5303 5296 5288 5297 5309 5324 5339 5349 5384 5390 5391 5418 5437 5457 5482 5474 5482 5486 5488 5498 5508 5504 5512 5520
5398 5391 5383 5373 5362 5354 5340 5324 5314 5304 5319 5297 5277 5285 5283 5284 5278 5284 5283 5279 5273 5276 5288 5289 5293 5302 5322 5325 5340 5357 5368 5376 5403 5435 5460 5444 5428 5502 5477 5485 5490 5500 5491 5516
5384 5377 5369 5358 5345 5329 5316 5306 5294 5283 5288 5277 5275 5271 5264 5266 5270 5262 5275 5277 5267 5286 5284 5277 5286 5298 5307 5313 5332 5343 5353 5367 5372 5399 5424 5427 5493 5499 5505 5494 5508 5503 5515 5515
5370 5360 5351 5341 5330 5316 5299 5286 5270 5263 5258 5262 5273 5262 5264 5264 5264 5263 5264 5281 5275 5278 5272 5263 5272 5300 5304 5324 5329 5339 5349 5363 5365 5381 5425 5445 5462 5471 5477 5479 5493 5497 5498 5505
5356 5348 5338 5327 5315 5301 5284 5273 5262 5252 5254 5268 5263 5258 5263 5257 5253 5263 5273 5275 5277 5271 5265 5268 5275 5285 5306 5322 5343 5352 5353 5366 5375 5381 5420 5432 5473 5481 5475 5483 5486 5489 5492 5496
5347 5336 5324 5312 5300 5286 5274 5271 5260 5250 5250 5265 5255 5259 5260 5259 5257 5260 5264 5263 5266 5267 5266 5276 5282 5295 5314 5316 5317 5339 5357 5356 5362 5378 5388 5417 5448 5466 5464 5453 5490 5488 5484 5482
5330 5320 5308 5294 5283 5275 5268 5271 5260 5246 5250 5261 5262 5263 5258 5255 5253 5255 5262 5257 5253 5258 5257 5277 5289 5297 5308 5308 5325 5336 5359 5378 5379 5395 5399 5417 5447 5456 5460 5481 5466 5471 5468 5469
5315 5302 5290 5278 5272 5270 5267 5261 5259 5253 5251 5261 5262 5266 5263 5260 5263 5257 5256 5258 5255 5256 5261 5269 5281 5292 5302 5308 5323 5356 5381 5390 5405 5409 5432 5430 5438 5453 5457 5465 5458 5454 5451 5450
5300 5287 5275 5269 5267 5266 5259 5255 5255 5250 5254 5259 5259 5269 5272 5270 5269 5266 5255 5252 5255 5258 5269 5269 5282 5292 5300 5304 5318 5327 5345 5361 5396 5406 5411 5410 5417 5428 5433 5442 5442 5438 5436 5433
5284 5273 5267 5265 5264 5261 5256 5250 5250 5248 5248 5238 5272 5278 5272 5280 5273 5266 5263 5265 5263 5262 5266 5267 5275 5284 5298 5311 5316 5302 5291 5314 5360 5394 5388 5405 5407 5410 5418 5423 5421 5419 5417 5417
5272 5266 5265 5263 5261 5258 5254 5249 5247 5247 5247 5256 5268 5274 5279 5274 5269 5266 5265 5264 5266 5270 5272 5277 5284 5290 5285 5302 5296 5288 5277 5301 5330 5392 5384 5403 5397 5396 5403 5405 5398 5399 5402 5396
5267 5266 5264 5261 5258 5257 5251 5247 5246 5246 5244 5246 5253 5269 5273 5272 5271 5270 5269 5271 5276 5277 5282 5275 5267 5263 5270 5255 5260 5262 5277 5307 5350 5362 5375 5378 5374 5374 5380 5381 5378 5377 5377 5375
5268 5268 5266 5261 5256 5253 5247 5244 5244 5248 5247 5245 5242 5257 5270 5266 5266 5264 5271 5275 5269 5272 5260 5251 5250 5245 5252 5238 5237 5248 5270 5297 5322 5339 5363 5360 5361 5356 5360 5363 5360 5362 5361 5360
5271 5271 5267 5262 5257 5254 5248 5246 5246 5248 5248 5245 5229 5242 5256 5260 5253 5256 5261 5263 5263 5253 5247 5241 5236 5238 5236 5230 5227 5242 5261 5280 5297 5309 5321 5326 5329 5336 5340 5343 5346 5349 5346 5344
5274 5272 5267 5261 5254 5245 5243 5246 5246 5246 5241 5220 5218 5228 5238 5255 5251 5253 5259 5265 5253 5245 5236 5231 5233 5227 5217 5208 5221 5233 5243 5255 5266 5282 5294 5302 5306 5307 5312 5318 5322 5324 5321 5323
5271 5268 5259 5246 5247 5248 5249 5244 5237 5231 5219 5215 5215 5221 5228 5238 5247 5253 5261 5270 5256 5236 5229 5228 5219 5212 5208 5211 5216 5223 5232 5241 5252 5270 5273 5279 5283 5285 5290 5294 5297 5301 5302 5304
5263 5254 5248 5250 5253 5250 5232 5212 5209 5202 5201 5198 5201 5209 5225 5238 5240 5245 5254 5253 5246 5230 5225 5219 5208 5200 5198 5205 5212 5220 5227 5234 5241 5250 5255 5260 5265 5269 5273 5276 5279 5282 5283 5285
5256 5253 5253 5249 5237 5224 5211 5183 5198 5189 5187 5197 5206 5219 5222 5229 5235 5246 5246 5228 5221 5213 5220 5206 5195 5189 5191 5198 5205 5212 5218 5226 5232 5239 5244 5249 5251 5253 5259 5261 5262 5265 5267 5270
5259 5249 5237 5229 5211 5201 5179 5185 5179 5188 5188 5193 5206 5207 5216 5225 5235 5237 5228 5221 5215 5208 5189 5191 5185 5186 5190 5193 5200 5206 5211 5215 5221 5226 5232 5236 5239 5241 5245 5247 5248 5250 5253 5255
5236 5218 5212 5196 5178 5179 5184 5181 5183 5191 5194 5201 5200 5199 5204 5215 5220 5219 5214 5194 5202 5176 5177 5180 5181 5181 5182 5189 5195 5200 5202 5206 5210 5215 5221 5225 5227 5228 5231 5234 5234 5237 5239 5242
5218 5214 5199 5185 5199 5187 5185 5175 5177 5193 5199 5199 5192 5193 5188 5196 5200 5205 5195 5185 5171 5179 5176 5178 5178 5178 5177 5185 5191 5193 5195 5197 5200 5204 5207 5210 5212 5215 5217 5219 5221 5223 5226 5227
5208 5202 5187 5198 5185 5182 5178 5186 5188 5197 5199 5193 5185 5170 5164 5169 5178 5181 5164 5166 5170 5172 5174 5171 5171 5174 5174 5178 5182 5185 5188 5188 5189 5194 5198 5201 5203 5204 5205 5207 5209 5210 5212 5213
5199 5187 5195 5190 5181 5184 5187 5189 5192 5195 5191 5179 5162 5162 5160 5153 5154 5164 5168 5164 5162 5161 5165 5168 5167 5167 5168 5170 5174 5176 5179 5180 5183 5184 5188 5189 5192 5193 5196 5197 5199 5198 5201 5200